HADR/DIR METAR and TAF weather

Enter ICAO airport designator
Station Type Date Time Source
HADR METAR 2020/04/04 07:00 UTC NOAA

HADR 040700Z 0412/0518Z 06012KT 9999 SCT025 SCT080 BECMG 0412/0415 08012KT SCT030 SCT080 BECMG 0415/0418 09012KT


Station Type Date Time Source
HADR Decoded METAR 2020/04/04 07:00 UTC NOAA

Dire Dawa, Ethiopia (HADR) 09-36N 041-52E 1146M
Apr 04, 2020 - 03:00 AM EDT / 2020.04.04 0700 UTC
Wind: from the ENE (060 degrees) at 14 MPH (12 KT):0
Visibility: greater than 7 mile(s):0
Sky conditions: partly cloudy
ob: HADR 040700Z 0412/0518Z 06012KT 9999 SCT025 SCT080 BECMG 0412/0415 08012KT SCT030 SCT080 BECMG 0415/0418 09012KT
cycle: 7

Station Type Date Time Source
HADR TAF 2020/12/05 18:27 UTC NOAA

TAF TAF HADR 051530Z 0518/0624 09004KT 9999 FEW020 SCT080

Example: see airport list